Total_Precipitation_Accumulation
0.03 0.06 0.09 0.10 0.09 0.07 0.08 0.09 0.08 0.06 0.06 0.07 0.09 0.11 0.13 0.14 0.13 0.13 0.13 0.14 0.16 0.15 0.15 0.15 0.14 0.13 0.13 0.14 0.14 0.15 0.15 0.15 0.17 0.17 0.17 0.18 0.18 0.16 0.16 0.17 0.13 0.20 0.27
0.05 0.08 0.09 0.08 0.07 0.06 0.06 0.06 0.05 0.04 0.05 0.07 0.06 0.06 0.08 0.09 0.11 0.12 0.13 0.14 0.15 0.16 0.16 0.16 0.15 0.13 0.11 0.13 0.16 0.15 0.14 0.12 0.12 0.13 0.14 0.12 0.17 0.18 0.15 0.18 0.19 0.30 0.34
0.04 0.07 0.08 0.08 0.06 0.05 0.05 0.04 0.04 0.03 0.04 0.05 0.04 0.04 0.05 0.06 0.07 0.08 0.10 0.11 0.12 0.12 0.13 0.15 0.17 0.15 0.10 0.11 0.15 0.15 0.14 0.13 0.11 0.10 0.09 0.09 0.16 0.19 0.19 0.20 0.21 0.34 0.34
0.02 0.04 0.06 0.07 0.06 0.05 0.05 0.05 0.04 0.03 0.03 0.03 0.03 0.03 0.04 0.04 0.05 0.06 0.07 0.07 0.09 0.11 0.14 0.14 0.15 0.16 0.12 0.12 0.12 0.13 0.14 0.13 0.10 0.07 0.02 0.05 0.22 0.31 0.31 0.26 0.21 0.31 0.33
0.01 0.02 0.05 0.07 0.07 0.06 0.06 0.06 0.04 0.04 0.04 0.04 0.04 0.03 0.03 0.03 0.03 0.04 0.04 0.04 0.05 0.07 0.09 0.11 0.15 0.16 0.15 0.13 0.12 0.14 0.15 0.15 0.10 0.04 0.01 0.07 0.24 0.35 0.31 0.28 0.24 0.29 0.32
0.02 0.02 0.04 0.06 0.07 0.07 0.08 0.07 0.05 0.04 0.04 0.04 0.03 0.03 0.03 0.04 0.04 0.04 0.03 0.03 0.03 0.04 0.07 0.10 0.15 0.20 0.15 0.13 0.16 0.19 0.24 0.22 0.11 0.03 0.02 0.07 0.16 0.28 0.32 0.36 0.35 0.30 0.29
0.03 0.04 0.04 0.04 0.05 0.06 0.06 0.06 0.05 0.04 0.04 0.03 0.03 0.03 0.03 0.03 0.03 0.04 0.05 0.04 0.03 0.03 0.05 0.07 0.11 0.20 0.19 0.18 0.22 0.26 0.32 0.25 0.12 0.11 0.06 0.04 0.10 0.24 0.40 0.46 0.42 0.34 0.30
0.00 0.00 0.00 0.01 0.02 0.03 0.05 0.06 0.05 0.04 0.04 0.04 0.03 0.03 0.02 0.02 0.04 0.07 0.09 0.08 0.06 0.05 0.05 0.06 0.07 0.13 0.17 0.20 0.24 0.27 0.29 0.17 0.12 0.22 0.18 0.14 0.19 0.34 0.45 0.62 0.58 0.43 0.36
0.00 0.00 0.00 0.00 0.00 0.01 0.02 0.04 0.04 0.03 0.03 0.03 0.02 0.02 0.01 0.02 0.03 0.06 0.07 0.06 0.06 0.06 0.06 0.05 0.04 0.05 0.10 0.15 0.18 0.21 0.21 0.13 0.12 0.31 0.31 0.39 0.29 0.36 0.42 0.59 0.66 0.55 0.44
0.00 0.00 0.00 0.00 0.00 0.00 0.01 0.02 0.02 0.02 0.03 0.03 0.03 0.02 0.02 0.03 0.05 0.06 0.05 0.06 0.06 0.06 0.06 0.05 0.05 0.03 0.04 0.05 0.07 0.09 0.08 0.05 0.06 0.22 0.48 0.46 0.34 0.49 0.55 0.58 0.63 0.60 0.55
0.00 0.00 0.00 0.00 0.00 0.00 0.00 0.01 0.01 0.01 0.01 0.03 0.05 0.05 0.04 0.03 0.03 0.03 0.03 0.04 0.04 0.04 0.04 0.04 0.05 0.05 0.04 0.02 0.02 0.03 0.03 0.00 0.04 0.16 0.28 0.30 0.38 0.51 0.67 0.70 0.70 0.66 0.59
0.00 0.00 0.00 0.00 0.00 0.00 0.00 0.00 0.00 0.00 0.01 0.01 0.02 0.03 0.03 0.04 0.04 0.06 0.06 0.07 0.05 0.04 0.05 0.06 0.06 0.05 0.04 0.02 0.06 0.08 0.03 0.01 0.01 0.03 0.08 0.13 0.26 0.41 0.56 0.70 0.82 0.79 0.68
0.00 0.00 0.00 0.00 0.00 0.00 0.00 0.00 0.00 0.00 0.00 0.00 0.00 0.00 0.00 0.01 0.02 0.04 0.04 0.06 0.06 0.07 0.09 0.10 0.10 0.10 0.11 0.12 0.14 0.14 0.09 0.06 0.04 0.03 0.03 0.07 0.13 0.21 0.39 0.57 0.77 0.89 0.86
0.00 0.00 0.00 0.00 0.00 0.00 0.00 0.00 0.00 0.00 0.00 0.00 0.00 0.00 0.00 0.00 0.00 0.01 0.02 0.02 0.03 0.06 0.09 0.13 0.15 0.15 0.13 0.12 0.13 0.13 0.13 0.13 0.08 0.07 0.05 0.08 0.10 0.09 0.16 0.32 0.54 0.83 0.96
0.00 0.00 0.00 0.00 0.00 0.00 0.00 0.00 0.00 0.00 0.00 0.00 0.00 0.00 0.00 0.00 0.00 0.00 0.00 0.00 0.01 0.01 0.02 0.03 0.05 0.08 0.09 0.09 0.11 0.11 0.12 0.11 0.09 0.10 0.09 0.10 0.10 0.09 0.09 0.16 0.32 0.64 0.94
0.00 0.00 0.00 0.00 0.00 0.00 0.00 0.00 0.00 0.00 0.00 0.00 0.00 0.00 0.00 0.00 0.00 0.00 0.00 0.00 0.00 0.00 0.00 0.00 0.01 0.02 0.02 0.03 0.04 0.05 0.07 0.08 0.08 0.11 0.12 0.14 0.13 0.11 0.10 0.11 0.18 0.37 0.70
0.00 0.00 0.00 0.00 0.00 0.00 0.00 0.00 0.00 0.00 0.00 0.00 0.00 0.00 0.00 0.00 0.00 0.00 0.00 0.00 0.00 0.00 0.00 0.00 0.00 0.00 0.00 0.01 0.01 0.01 0.02 0.03 0.05 0.07 0.09 0.13 0.17 0.15 0.13 0.11 0.12 0.20 0.39
0.00 0.00 0.00 0.00 0.00 0.00 0.00 0.00 0.00 0.00 0.00 0.00 0.00 0.00 0.00 0.00 0.00 0.00 0.00 0.00 0.00 0.00 0.00 0.00 0.00 0.00 0.00 0.00 0.00 0.00 0.00 0.00 0.01 0.02 0.05 0.08 0.14 0.17 0.15 0.15 0.14 0.15 0.23
0.00 0.00 0.00 0.00 0.00 0.00 0.00 0.00 0.00 0.00 0.00 0.00 0.00 0.00 0.00 0.00 0.00 0.00 0.00 0.00 0.00 0.00 0.00 0.00 0.00 0.00 0.00 0.00 0.00 0.00 0.00 0.00 0.00 0.00 0.01 0.03 0.06 0.13 0.17 0.17 0.18 0.17 0.17
0.00 0.00 0.00 0.00 0.00 0.00 0.00 0.00 0.00 0.00 0.00 0.00 0.00 0.00 0.00 0.00 0.00 0.00 0.00 0.00 0.00 0.00 0.00 0.00 0.00 0.00 0.00 0.00 0.00 0.00 0.00 0.00 0.00 0.00 0.00 0.01 0.02 0.04 0.11 0.15 0.18 0.18 0.16
0.00 0.00 0.00 0.00 0.00 0.00 0.00 0.00 0.00 0.00 0.00 0.00 0.00 0.00 0.00 0.00 0.00 0.00 0.00 0.00 0.00 0.00 0.00 0.00 0.00 0.00 0.00 0.01 0.02 0.01 0.00 0.00 0.00 0.00 0.00 0.00 0.01 0.01 0.04 0.08 0.15 0.20 0.19
0.00 0.00 0.00 0.00 0.00 0.00 0.00 0.00 0.00 0.00 0.00 0.00 0.00 0.00 0.00 0.00 0.00 0.00 0.00 0.00 0.00 0.00 0.00 0.00 0.00 0.01 0.01 0.01 0.05 0.09 0.05 0.01 0.00 0.00 0.00 0.00 0.00 0.01 0.02 0.04 0.08 0.15 0.20
0.00 0.00 0.00 0.00 0.00 0.00 0.00 0.00 0.00 0.00 0.00 0.00 0.00 0.00 0.00 0.00 0.00 0.00 0.00 0.00 0.00 0.00 0.00 0.00 0.01 0.02 0.03 0.02 0.04 0.18 0.28 0.16 0.05 0.01 0.00 0.01 0.01 0.01 0.01 0.02 0.05 0.08 0.14
0.00 0.00 0.00 0.00 0.00 0.00 0.00 0.00 0.00 0.00 0.00 0.00 0.00 0.00 0.00 0.00 0.00 0.00 0.00 0.00 0.00 0.00 0.01 0.01 0.01 0.02 0.06 0.08 0.05 0.08 0.18 0.25 0.28 0.13 0.02 0.02 0.03 0.03 0.02 0.02 0.03 0.05 0.08
0.00 0.00 0.00 0.00 0.00 0.00 0.00 0.00 0.00 0.00 0.00 0.00 0.00 0.00 0.00 0.00 0.00 0.00 0.00 0.00 0.00 0.00 0.01 0.01 0.02 0.03 0.06 0.11 0.12 0.11 0.09 0.09 0.15 0.25 0.11 0.03 0.04 0.04 0.04 0.03 0.03 0.04 0.05
0.00 0.00 0.00 0.00 0.00 0.00 0.00 0.00 0.00 0.00 0.00 0.00 0.00 0.00 0.00 0.01 0.01 0.01 0.00 0.00 0.00 0.01 0.01 0.02 0.03 0.04 0.06 0.08 0.11 0.13 0.17 0.19 0.16 0.21 0.20 0.07 0.03 0.03 0.04 0.04 0.05 0.07 0.09